Погода в Коргалжыне

Казахстан     50˚35′01″N   70˚01′04″E
темп.,
°C
ветер,
м/с
пор.,
м/с
влажн.,
%
обл.,
%
осадки,
мм/ч
давл.,
гПа
погр.,
м
18 января, пн
пн1800:00−9˚ююз458154 0.0 101877
03:00−9˚юз458192 0.0 101765
06:00−10˚зюз338374 0.0 101726
09:00−12˚зюз238926 0.0 101821
12:00−10˚сз229153 0.0 101924
15:00−9˚ссз129185 0.0 101978
18:00−12˚св338791 0.0 102026
21:00−14˚св348888 0.0 102137
19 января, вт
вт1900:00−15˚всв448867 0.0 102245
03:00−16˚в348913 0.0 102135
06:00−16˚всв448927 0.0 102040
09:00−15˚в349047 0.0 102033
12:00−12˚в348941 0.0 101997
15:00−10˚в359095 0.0 1018129
18:00−12˚в448793 0.0 101747
21:00−13˚в458459 0.0 101754
20 января, ср
ср2000:00−12˚вюв448279 0.0 101661
03:00−10˚юв4584100 0.0 101593
06:00−6˚юв4795100 0.6 1014250
09:00−6˚ю4892100 0.2 1012180
12:00−2˚ююз71195100 0.8 1013421
15:00−5˚зюз9139199 0.3 1015624
18:00−10˚зюз61293100 0.3 1019378
21:00−16˚зюз589779 0.0 1023120
21 января, чт
чт2100:00−18˚юз349883 0.0 102434
03:00−18˚зюз3394100 0.0 102524
06:00−16˚зюз2291100 0.0 102320
09:00−15˚юз2289100 0.0 102227
12:00−13˚зюз2388100 0.0 1020148
15:00−13˚з2490100 0.0 1019207
18:00−18˚з349576 0.0 101922
21:00−20˚з45970 0.0 102055
22 января, пт
пт2200:00−23˚з4710024 0.0 102199
03:00−26˚з459967 0.0 102261
06:00−28˚з459837 0.0 102451
09:00−27˚зюз449770 0.0 102647
12:00−24˚юз589435 0.0 1027225
15:00−21˚юз599260 0.0 1026298
18:00−21˚ююз5109380 0.0 1026223
21:00−17˚юз81589100 0.0 1024457